Location: Hylvaty SDH
(49.9612°N, 16.4057°E)
Time: 08:53:24
(UTC+01:00)

SR - Visible Passes

Search period start: 26 October 2020 00:00
Search period end: 05 November 2020 00:00
Orbit: 581 x 874 km, 66.7° (Epoch: 25 October)

Date Brightness Start Highest point End Pass type
(mag) Time Alt. Az. Time Alt. Az. Time Alt. Az.
26 Oct ? 03:37:14 29° NNE 03:37:14 29° NNE 03:39:33 10° NNE visible
26 Oct ? 05:16:38 14° NW 05:18:09 16° NNW 05:20:58 10° NNE visible
27 Oct ? 02:49:00 15° NE 02:49:00 15° NE 02:49:49 10° NE visible
27 Oct ? 04:28:25 22° NNW 04:28:25 22° NNW 04:31:31 10° NNE visible
28 Oct ? 03:40:10 21° N 03:40:10 21° N 03:42:00 10° NNE visible
28 Oct ? 05:19:35 11° NW 05:21:17 13° NNW 05:23:17 10° N visible
29 Oct ? 02:51:52 13° NNE 02:51:52 13° NNE 02:52:25 10° NNE visible
29 Oct ? 04:31:17 16° NNW 04:31:17 16° NNW 04:33:52 10° NNE visible
30 Oct ? 03:42:58 17° N 03:42:58 17° N 03:44:25 10° NNE visible
30 Oct ? 05:23:24 10° NNW 05:24:30 11° N 05:25:36 10° N visible
31 Oct ? 02:54:38 11° NNE 02:54:38 11° NNE 02:54:53 10° NNE visible
31 Oct ? 04:34:02 13° NNW 04:34:03 13° NNW 04:36:12 10° N visible
01 Nov ? 03:45:41 14° N 03:45:41 14° N 03:46:47 10° NNE visible
01 Nov ? 05:27:17 10° N 05:27:46 10° N 05:28:14 10° N visible
02 Nov ? 04:36:43 11° NNW 04:37:16 11° N 04:38:34 10° N visible
03 Nov ? 03:48:20 12° N 03:48:20 12° N 03:49:07 10° N visible
03 Nov ? 05:29:55 10° N 05:31:02 11° N 05:32:10 10° NNE visible
04 Nov ? 04:39:51 10° N 04:40:32 10° N 04:41:13 10° N visible
